This demonstration page uses our WeatherBlox Daily Observations layout. Learn more.

Left ArrowRight Arrow

Hourly Observations for April 30, 2020

Temp ( °F °C ) Dew Point ( °F °C ) Humidity (%) Winds ( mph kmh ) Pressure ( in mb ) Visibility ( mi km ) Precip ( " mm )
12:15 am 00:15 Clear 41 5.2 36 2.1 81 81 Calm 30.19 1022 10 16 0.00 0.00
12:35 am 00:35 Clear 41 5.1 37 2.5 83 83 W 3 6 30.19 1022 10 16 0.00 0.00
12:55 am 00:55 Clear 40 4.4 36 2 85 85 N 3 6 30.19 1022 10 16 0.00 0.00
1:15 am 01:15 Clear 37 3 33 0.6 84 84 Calm 30.20 1023 10 16 0.00 0.00
1:35 am 01:35 Clear 38 3.3 33 0.8 84 84 NNW 3 6 30.19 1023 10 16 0.00 0.00
1:55 am 01:55 Clear 37 2.7 34 0.9 88 88 W 6 9 30.21 1023 10 16 0.00 0.00
2:15 am 02:15 Clear 37 2.5 33 0.8 89 89 Calm 30.19 1022 10 16 0.00 0.00
2:35 am 02:35 Clear 36 2.1 33 0.7 91 91 W 3 6 30.20 1023 10 16 0.00 0.00
2:55 am 02:55 Clear 36 2.3 34 1.1 92 92 W 7 11 30.19 1023 10 16 0.00 0.00
3:15 am 03:15 Clear 37 2.5 34 1.2 91 91 NW 5 7 30.19 1022 10 16 0.00 0.00
3:35 am 03:35 Clear 35 1.5 33 0.3 92 92 NNW 5 7 30.19 1022 10 16 0.00 0.00
3:55 am 03:55 Clear 35 1.5 32 0.1 91 91 NNW 3 6 30.19 1022 10 16 0.00 0.00
4:15 am 04:15 Clear 34 1.1 32 0 92 92 NW 5 7 30.20 1023 10 16 0.00 0.00
4:35 am 04:35 Clear 34 1.1 32 -0.1 92 92 NW 3 6 30.20 1023 10 16 0.00 0.00
4:55 am 04:55 Clear 35 1.8 33 0.5 91 91 Calm 30.19 1022 10 16 0.00 0.00
5:15 am 05:15 Clear 34 1 32 -0.1 92 92 Calm 30.20 1023 10 16 0.00 0.00
5:35 am 05:35 Clear 34 1.1 32 0 92 92 Calm 30.19 1022 10 16 0.00 0.00
5:55 am 05:55 Clear 33 0.8 32 0 94 94 Calm 30.18 1022 10 16 0.00 0.00
6:15 am 06:15 Clear 33 0.6 32 0 96 96 Calm 30.18 1022 10 16 0.00 0.00
6:35 am 06:35 Clear 33 0.5 32 -0.2 95 95 Calm 30.19 1022 10 16 0.00 0.00
6:55 am 06:55 Sunny 33 0.6 32 0 96 96 W 5 7 30.19 1022 10 16 0.00 0.00
7:15 am 07:15 Sunny 34 1.1 33 0.3 94 94 W 3 6 30.19 1022 10 16 0.00 0.00
7:35 am 07:35 Sunny 37 3 36 2.2 95 95 Calm 30.17 1022 10 16 0.00 0.00
7:55 am 07:55 Sunny 41 5 38 3.2 88 88 Calm 30.16 1021 10 16 0.00 0.00
8:15 am 08:15 Sunny 44 6.4 40 4.4 87 87 Calm 30.13 1020 10 16 0.00 0.00
8:35 am 08:35 Sunny 46 7.9 41 5.1 83 83 Calm 30.10 1019 10 16 0.00 0.00
8:55 am 08:55 Sunny 51 10.4 42 5.7 73 73 SE 5 7 30.08 1019 10 16 0.00 0.00
9:15 am 09:15 Sunny 55 12.6 43 6.3 66 66 S 7 11 30.05 1018 10 16 0.00 0.00
9:35 am 09:35 Sunny 57 13.9 44 6.5 61 61 SSE 8 13 30.03 1017 10 16 0.00 0.00
9:55 am 09:55 Sunny 59 15 44 6.6 57 57 S 10 17 30.02 1016 10 16 0.00 0.00
10:15 am 10:15 Sunny 61 16.2 43 6.3 52 52 S 10 17 30.01 1016 10 16 0.00 0.00
10:35 am 10:35 Sunny 63 17 43 6 49 49 S 9 15 29.99 1016 10 16 0.00 0.00
10:55 am 10:55 Sunny 64 17.9 42 5.7 45 45 S 13 20 29.97 1015 10 16 0.00 0.00
11:15 am 11:15 Sunny 65 18.5 41 5.2 42 42 SSE 10 17 29.96 1015 10 16 0.00 0.00
11:35 am 11:35 Sunny 67 19.2 40 4.7 39 39 S 14 22 29.95 1014 10 16 0.00 0.00
11:55 am 11:55 Sunny 68 20 40 4.7 37 37 S 13 20 29.94 1014 10 16 0.00 0.00
12:15 pm 12:15 Sunny 69 20.7 40 4.3 34 34 S 17 28 29.92 1013 10 16 0.00 0.00
12:35 pm 12:35 Sunny 70 21 39 4.1 33 33 S 17 28 29.90 1013 10 16 0.00 0.00
12:55 pm 12:55 Sunny 71 21.5 41 4.8 34 34 S 16 26 29.89 1012 10 16 0.00 0.00
1:15 pm 13:15 Sunny 73 22.7 41 5.1 32 32 S 13 20 29.86 1011 10 16 0.00 0.00
1:35 pm 13:35 Sunny 74 23.1 40 4.7 30 30 S 15 24 29.85 1011 10 16 0.00 0.00
1:55 pm 13:55 Sunny 74 23.4 41 4.9 30 30 S 16 26 29.82 1010 10 16 0.00 0.00
2:15 pm 14:15 Sunny 75 24 41 5 29 29 S 18 30 29.80 1009 10 16 0.00 0.00
2:35 pm 14:35 Sunny 76 24.7 42 5.3 29 29 S 16 26 29.79 1009 10 16 0.00 0.00
2:55 pm 14:55 Sunny 77 25.2 41 5.2 28 28 S 20 31 29.78 1008 10 16 0.00 0.00
3:15 pm 15:15 Sunny 78 25.3 42 5.7 28 28 S 18 30 29.78 1008 10 16 0.00 0.00
3:35 pm 15:35 Sunny 78 25.8 43 6 28 28 SSE 20 31 29.76 1008 10 16 0.00 0.00
3:55 pm 15:55 Sunny 79 25.9 43 5.9 28 28 S 17 28 29.74 1007 10 16 0.00 0.00
4:15 pm 16:15 Sunny 80 26.4 43 6.2 28 28 S 18 30 29.73 1007 10 16 0.00 0.00
4:35 pm 16:35 Sunny 79 26 43 6.1 28 28 S 17 28 29.72 1007 10 16 0.00 0.00
4:55 pm 16:55 Sunny 78 25.8 43 6 28 28 SSE 21 33 29.71 1006 10 16 0.00 0.00
5:15 pm 17:15 Sunny 78 25.8 42 5.7 28 28 S 21 33 29.70 1006 10 16 0.00 0.00
5:35 pm 17:35 Sunny 80 26.4 43 6 27 27 SSE 22 35 29.69 1005 10 16 0.00 0.00
5:55 pm 17:55 Sunny 79 26.2 43 6.1 28 28 SSE 21 33 29.68 1005 10 16 0.00 0.00
6:15 pm 18:15 Sunny 79 25.9 42 5.8 28 28 SSE 24 39 29.67 1005 10 16 0.00 0.00
6:35 pm 18:35 Sunny 79 26 43 6.1 28 28 S 17 28 29.66 1004 10 16 0.00 0.00
6:55 pm 18:55 Sunny 78 25.7 42 5.5 27 27 SSE 21 33 29.67 1005 10 16 0.00 0.00
7:15 pm 19:15 Sunny 78 25.3 42 5.8 29 29 SSE 22 35 29.66 1004 10 16 0.00 0.00
7:35 pm 19:35 Sunny 76 24.5 43 6 30 30 SSE 18 30 29.66 1005 10 16 0.00 0.00
7:55 pm 19:55 Sunny 74 23.5 43 6 32 32 SSE 15 24 29.67 1005 10 16 0.00 0.00
8:15 pm 20:15 Sunny 72 22.4 43 5.9 34 34 SSE 13 20 29.68 1005 10 16 0.00 0.00
8:35 pm 20:35 Clear 71 21.6 43 6.2 37 37 SSE 14 22 29.68 1005 10 16 0.00 0.00
8:55 pm 20:55 Clear 70 21 43 6.2 38 38 SSE 15 24 29.68 1005 10 16 0.00 0.00
9:15 pm 21:15 Clear 69 20.5 43 6.2 40 40 SE 14 22 29.69 1005 10 16 0.00 0.00
9:35 pm 21:35 Clear 68 19.9 43 6.2 41 41 SE 15 24 29.69 1006 10 16 0.00 0.00
9:55 pm 21:55 Clear 67 19.2 43 6.2 43 43 SE 14 22 29.71 1006 10 16 0.00 0.00
10:15 pm 22:15 Clear 65 18.4 43 6.2 45 45 SE 13 20 29.71 1006 10 16 0.00 0.00
10:35 pm 22:35 Clear 64 17.8 44 6.5 48 48 SSE 14 22 29.71 1006 10 16 0.00 0.00
10:55 pm 22:55 Clear 64 17.7 44 6.7 49 49 SSE 14 22 29.72 1007 10 16 0.00 0.00
11:15 pm 23:15 Clear 64 17.7 44 6.8 49 49 SSE 15 24 29.71 1006 10 16 0.00 0.00
11:35 pm 23:35 Clear 64 17.5 45 7 50 50 SSE 14 22 29.71 1006 10 16 0.00 0.00
11:55 pm 23:55 Clear 64 17.7 45 7.1 50 50 SSE 16 26 29.71 1006 10 16 0.00 0.00

Powered by AerisWeather